Regional Weather Roundup
Issued by NWS

Home | Current Version | Previous Version | Graphics & Text | Print | Product List | Glossary Off
Versions: 1 2 3 4 5 6 7 8 9 10 11 12 13 14 15 16 17 18 19 20 21 22 23 24 25 26 27 28 29 30 31 32 33 34 35 36 37 38 39 40 41 42 43 44 45 46 47 48 49 50

000
ASUS43 KMKX 281021
RWRWI

WISCONSIN REGIONAL WEATHER ROUNDUP
NATIONAL WEATHER SERVICE MILWAUKEE/SULLIVAN WI
500 AM CDT THU APR 28 2016

NOTE: "FAIR" INDICATES FEW OR NO CLOUDS BELOW 12,000 FEET WITH NO
SIGNIFICANT WEATHER AND/OR OBSTRUCTIONS TO VISIBILITY.

WIZ001-002-006>008-014>016-023>028-281100-
NORTHWEST WISCONSIN

CITY           SKY/WX    TMP DP  RH WIND       PRES   REMARKS
SUPERIOR ARPT  CLOUDY    37  29  73 NE9       30.05R WCI  30
ASHLAND        CLOUDY    37  24  59 NE9       30.05S WCI  30
HAYWARD        CLOUDY    41  10  28 E10       29.98R
SIREN          CLOUDY    40  14  33 NE8       29.96S
CUMBERLAND     DRIZZLE   36  23  60 E13       29.93S WCI  27
RICE LAKE      LGT RAIN  40  23  51 NE8       29.95R WCI  34
CHETEK         CLOUDY    42  21  43 NE9       29.94R
LADYSMITH      MIX PCPN  41  14  33 E9        29.98R
EAU CLAIRE     CLOUDY    42  22  44 NE17      29.89S
MENOMONIE      CLOUDY    40  40  99 NE10G17   29.89R WCI  33
NEW RICHMOND   CLOUDY    39  30  69 NE12      29.89S WCI  32
OSCEOLA        CLOUDY    39  32  75 NE10      29.94S WCI  32
$$

WIZ003>005-009-010-017-018-281100-
NORTH CENTRAL WISCONSIN

CITY           SKY/WX    TMP DP  RH WIND       PRES   REMARKS
MANITOWISH WTR CLOUDY    37  12  35 E8        30.00R WCI  31
ARBOR VITAE    CLOUDY    39  10  29 E8        30.00R WCI  34
WOODRUFF       CLOUDY    39  10  29 E8        30.00R WCI  34
RHINELANDER    CLOUDY    38  11  32 E15G21    29.98F WCI  29
EAGLE RIVER    CLOUDY    37   8  31 E10       30.01R WCI  29
LAND O LAKES   CLOUDY    36  11  35 E7        30.02S WCI  30
PHILLIPS       CLOUDY    38  12  33 E9G18     29.96S WCI  32
TOMAHAWK       CLOUDY    38  11  33 E8        29.97S WCI  32
MEDFORD        CLOUDY    37  15  39 E15       29.92R WCI  28
MERRILL        CLOUDY   N/A N/A N/A E9        29.97S
$$

WIZ029-030-035-036-043>047-281100-
CENTRAL WISCONSIN

CITY           SKY/WX    TMP DP  RH WIND       PRES   REMARKS
WAUSAU         CLOUDY    40  13  33 E12G18    29.94S WCI  33
MOSINEE        CLOUDY    36  14  41 E12       29.95S WCI  27
MARSHFIELD     CLOUDY    40  17  39 E15       29.92R WCI  32
STEVENS POINT  CLOUDY    37  17  44 E14       29.94S WCI  28
WAUPACA        CLOUDY    41  25  53 NE10G17   29.94F
WAUTOMA        NOT AVBL
WISC RAPIDS    CLOUDY    40  18  41 E15G22    29.94R WCI  32
CAMP DOUGLAS   CLOUDY    41  30  66 E13G21    29.86F
$$

WIZ011>013-019>022-031-037>040-048>050-281100-
NORTHEAST WISCONSIN

CITY           SKY/WX    TMP DP  RH WIND       PRES   REMARKS
ANTIGO         CLOUDY    36  13  39 E16       29.96S WCI  26
SHAWANO        CLOUDY    39  25  57 NE15      29.99S WCI  30
OCONTO         CLOUDY    38  29  72 NE10      30.00S WCI  30
STURGEON BAY   CLOUDY    37  27  65 NE7       30.02S WCI  32
GREEN BAY      CLOUDY    40  29  64 NE18      29.97S WCI  31
MANITOWOC      CLOUDY    42  31  64 MISG      29.96S
APPLETON       MOCLDY    39  25  56 NE17G23   29.93S WCI  30
CLINTONVILLE   CLOUDY    37  23  56 E9        29.98R WCI  31
OSHKOSH        CLOUDY    42  30  62 NE16G25   29.91F
$$

WIZ032>034-041-042-053>061-281100-
SOUTHWEST WISCONSIN

CITY           SKY/WX    TMP DP  RH WIND       PRES   REMARKS
LA CROSSE      LGT RAIN  44  28  53 E10       29.84R
SPARTA         CLOUDY    42  29  60 E14G24    29.85S
VIROQUA        CLOUDY    39  31  73 E18G24    29.80R WCI  30
BOSCOBEL       LGT RAIN  42  37  82 CALM      29.82R
PRAIRIE DU CHI CLOUDY    42  35  75 NE5       29.80R
PLATTEVILLE    CLOUDY    42  40  92 E18       29.76S
$$

WIZ056-057-062-063-064-067-068-281100-
SOUTH CENTRAL WISCONSIN

CITY           SKY/WX    TMP DP  RH WIND       PRES   REMARKS
REEDSBURG      CLOUDY    40  30  65 NE10      29.84S WCI  34
BARABOO/DELLS  CLOUDY    40  28  62 E15G25    29.84F WCI  32
LONE ROCK      RAIN      41  34  76 E17G30    29.82R
MINERAL POINT  CLOUDY    43  37  81 E17G23    29.77R
MADISON        LGT RAIN  41  36  82 NE15      29.83F
MIDDLETON      CLOUDY    41  36  80 NE14G20   29.83F
WATERTOWN      CLOUDY    44  35  72 E12       29.86F
MONROE         CLOUDY    43  41  93 NE18G26   29.76F
JANESVILLE     RAIN      45  43  93 E20G25    29.79F
$$

WIZ051-052-058>065-066-070>072-281100-
SOUTHEAST WISCONSIN

CITY           SKY/WX    TMP DP  RH WIND       PRES   REMARKS
MILWAUKEE      LGT RAIN  42  35  76 E14       29.90R
WAUKESHA       CLOUDY    41  34  75 E7        29.90R
MILWAUKEE/TIMM CLOUDY    45  30  57 E9        29.91R
RACINE         LGT RAIN  42  37  82 E13       29.91R
BURLINGTON     LGT RAIN  42  40  92 E6        29.86F
KENOSHA        LGT RAIN  42  39  89 E15       29.86F
FOND DU LAC    CLOUDY    42  30  62 NE16      29.91F
SHEBOYGAN      CLOUDY    43  30  60 E13       29.93R
WEST BEND      CLOUDY    43  30  61 E10       29.89S
JUNEAU         CLOUDY    41  31  65 E8        29.91R
$$

LSZ147-162-281100-
LAKE SUPERIOR

STATION/POSITION TIME  TEMP    WIND        PRES    WAVE
                       AIR SEA DIR/SP/G            HT/PER
                 (UTC) (F)     (DEG/KT/KT) (MB)    (FT/S)
W MID LAKE BUOY  0950   38 36   70/ 12/ 16 1019.4R   2/ 4
DEVILS ISLAND    1000   38      70/ 11/ 12 1019.2S
PORT WING        0820   40      90/  4/  8 1018.3
SAXON HARBOR     0940   36     170/  2/  2 1017.3S
$$

LMZ867-665-643>646-281100-
LAKE MICHIGAN

STATION/POSITION TIME  TEMP    WIND        PRES    WAVE
                       AIR SEA DIR/SP/G            HT/PER
                 (UTC) (F)     (DEG/KT/KT) (MB)    (FT/S)
CHAMBERS ISLAND  0900   38      30/ 12/ 16 1016.9
N MID LAKE BUOY  0950   38 38   70/ 12/ 14 1017.5R   2/ 4
NORTHPORT PIER   1000   38      60/ 12/ 16 1016.9F
ALGOMA LAKESHORE 0900           50/ 22/ 27   N/A
KEWAUNEE LAKESHO 0900   40      30/ 14/ 19 1014.4F
SHEBOYGAN LAKESH 1000   43      60/ 12/ 13 1014.5R
PORT WASHINGTON  0940   45      60/ 12/ 16 1013.5S
S MID LAKE BUOY  0950   41 40   80/ 17/ 21 1011.9F   3/ 6
KENOSHA   LAKESH 1000   42      80/  9/ 11 1011.5R
$$

TC  - TEMPERATURE IN CELSIUS
VSB - VISIBILITY IN STATUTE MILES
WCI - WIND CHILL INDEX
HX  - HEAT INDEX





USA.gov is the U.S. government's official web portal to all federal, state and local government web resources and services.